This demonstration page uses our WeatherBlox Daily Observations layout. Learn more.

39.29038, -76.61219

Hourly Observations for November 4, 2019

Temp ( °F °C ) Dew Point ( °F °C ) Humidity (%) Winds ( mph kmh ) Pressure ( in mb ) Visibility ( mi km ) Precip ( " mm )
12:54 am 00:54 undefined 42 5.6 31 -0.6 65 65 undefined N/A 30.3 1026 N/A 0 0
1:54 am 01:54 undefined 41 5 31 -0.6 67 67 undefined N/A 30.31 1026 N/A 0 0
2:54 am 02:54 undefined 41 5 31 -0.6 67 67 undefined N/A 30.29 1026 N/A 0 0
3:54 am 03:54 undefined 41 5 30 -1.1 65 65 undefined N/A 30.31 1026 N/A 0 0
4:54 am 04:54 undefined 40 4.4 31 -0.6 70 70 undefined N/A 30.32 1027 N/A 0 0
5:54 am 05:54 undefined 39 3.9 32 0 76 76 undefined N/A 30.32 1027 N/A 0 0
6:54 am 06:54 undefined 42 5.6 34 1.1 73 73 undefined N/A 30.34 1028 N/A 0 0
7:54 am 07:54 undefined 44 6.7 36 2.2 73 73 undefined N/A 30.38 1029 N/A 0 0
8:54 am 08:54 undefined 49 9.4 37 2.8 64 64 undefined N/A 30.41 1030 N/A 0 0
9:54 am 09:54 undefined 56 13.3 37 2.8 49 49 undefined N/A 30.41 1030 N/A 0 0
10:54 am 10:54 undefined 58 14.4 33 0.6 39 39 undefined N/A 30.37 1028 N/A 0 0
11:54 am 11:54 undefined 60 15.6 34 1.1 38 38 undefined N/A 30.32 1027 N/A 0 0
12:54 pm 12:54 undefined 60 15.6 35 1.7 39 39 undefined N/A 30.29 1026 N/A 0 0
1:54 pm 13:54 undefined 62 16.7 37 2.8 40 40 undefined N/A 30.27 1025 N/A 0 0
2:54 pm 14:54 undefined 59 15 36 2.2 42 42 undefined N/A 30.26 1025 N/A 0 0
3:54 pm 15:54 undefined 57 13.9 37 2.8 47 47 undefined N/A 30.25 1025 N/A 0 0
4:54 pm 16:54 undefined 56 13.3 39 3.9 53 53 undefined N/A 30.26 1025 N/A 0 0
5:54 pm 17:54 undefined 55 12.8 40 4.4 57 57 undefined N/A 30.25 1025 N/A 0 0
6:54 pm 18:54 undefined 55 12.8 41 5 59 59 undefined N/A 30.25 1025 N/A 0 0
7:54 pm 19:54 undefined 54 12.2 42 5.6 64 64 undefined N/A 30.25 1024 N/A 0 0
8:54 pm 20:54 undefined 52 11.1 42 5.6 69 69 undefined N/A 30.26 1025 N/A 0 0
9:54 pm 21:54 undefined 50 10 42 5.6 74 74 undefined N/A 30.26 1025 N/A 0 0
10:54 pm 22:54 undefined 50 10 42 5.6 74 74 undefined N/A 30.25 1025 N/A 0 0
11:54 pm 23:54 undefined 48 8.9 42 5.6 80 80 undefined N/A 30.25 1024 N/A 0 0

Powered by AerisWeather